Location: �perlecques
(50.8057°N, 2.1521°E)
Time: 19:23:54
(UTC+00:00)

Vanguard 3 - Pass Details

Date: 01 August 2021
Orbit: 510 x 3260 km, 33.3° (Epoch: 17 September)

Event Time Altitude Azimuth Distance (km) Brightness Sun altitude
Rises 20:11:36 0° 255° (WSW) 6,289 12.3 -5.4°
Reaches altitude 10° 20:15:39 10° 249° (WSW) 5,562 11.9 -6.0°
Maximum altitude 20:31:57 44° 186° (S) 4,046 10.4 -7.9°
Drops below altitude 10° 20:49:14 10° 124° (ESE) 5,860 10.9 -9.9°
Enters shadow 20:49:19 10° 123° (ESE) 5,876 10.9 -10.0°
